This is the latest recevied weather packets stored in our database for station/object AA1FF. If no packets are shown the sender has not sent any weather packets the latest 10 day(s).
| Time | Temp. | Humidity | Pressure | Rain* | Wind** | Luminosity | Snow |
|---|---|---|---|---|---|---|---|
| 1777908827 | 17.78° C | 35% | 1010 hPa | 0 mm | - | 890 W/m² | - |
| 1777908529 | 17.22° C | 35% | 1010 hPa | 0 mm | - | 848 W/m² | - |
| 1777908227 | 17.22° C | 34% | 1011 hPa | 0 mm | - | 883 W/m² | - |
| 1777907925 | 17.78° C | 34% | 1011 hPa | 0 mm | - | 881 W/m² | - |
| 1777907625 | 17.22° C | 35% | 1010 hPa | 0 mm | - | 873 W/m² | - |
| 1777907326 | 17.22° C | 35% | 1010 hPa | 0 mm | - | 852 W/m² | - |
| 1777907026 | 17.22° C | 36% | 1010 hPa | 0 mm | - | 844 W/m² | - |
| 1777906726 | 17.22° C | 36% | 1010 hPa | 0 mm | - | 828 W/m² | - |
| 1777906424 | 16.67° C | 37% | 1010 hPa | 0 mm | - | 820 W/m² | - |
| 1777906126 | 16.67° C | 35% | 1011 hPa | 0 mm | - | 806 W/m² | - |
| 1777905826 | 17.22° C | 36% | 1011 hPa | 0 mm | - | 794 W/m² | - |
| 1777905527 | 16.67° C | 37% | 1011 hPa | 0 mm | - | 782 W/m² | - |
| 1777905224 | 16.67° C | 36% | 1011 hPa | 0 mm | - | 770 W/m² | - |
| 1777904641 | 16.67° C | 38% | 1011 hPa | 0 mm | - | 744 W/m² | - |
| 1777904326 | 16.11° C | 37% | 1011 hPa | 0 mm | - | 732 W/m² | - |
| 1777904027 | 16.11° C | 38% | 1011 hPa | 0 mm | - | 720 W/m² | - |
| 1777903725 | 16.11° C | 38% | 1011 hPa | 0 mm | - | 708 W/m² | - |
| 1777903425 | 16.11° C | 39% | 1011 hPa | 0 mm | - | 692 W/m² | - |
| 1777903128 | 16.11° C | 38% | 1011 hPa | 0 mm | - | 676 W/m² | - |
| 1777902825 | 15.56° C | 39% | 1011 hPa | 0 mm | - | 663 W/m² | - |
| 1777902525 | 15.56° C | 40% | 1011 hPa | 0 mm | - | 648 W/m² | - |
| 1777902225 | 15.56° C | 41% | 1011 hPa | 0 mm | - | 635 W/m² | - |
| 1777901928 | 15.56° C | 42% | 1011 hPa | 0 mm | - | 619 W/m² | - |
| 1777901625 | 15° C | 42% | 1011 hPa | 0 mm | - | 603 W/m² | - |
| 1777901328 | 15° C | 43% | 1011 hPa | 0 mm | - | 587 W/m² | - |
* Rain latest hour (hover to see other rain measurements)
** Current wind speed in m/s (hover to see current wind gust speed)